Weather Roundup
Issued by NWS Springfield, MO

Home | Current Version | Previous Version | Text Only | Print | Product List | Glossary On
Versions: 1 2 3 4 5 6 7 8 9 10 11 12 13 14 15 16 17 18 19 20 21 22 23 24 25 26 27 28 29 30 31 32 33 34 35 36 37 38 39 40 41 42 43 44 45 46 47 48 49 50
000
NZUS99 KSGF 181607
HRRSGF

HOURLY WEATHER
NATIONAL WEATHER SERVICE SPRINGFIELD MO
1100 AM CDT WED OCT 18 2017

......SGF CWA......

CITY           SKY/WX    TMP DP  RH WIND       PRES   REMARKS
SPRINGFIELD    SUNNY     64  44  48 S13       30.16F
JOPLIN         SUNNY     66  45  46 S18G25    30.13F
WEST PLAINS    SUNNY     65  46  50 S13       30.23F
ROLLA          SUNNY     64  43  46 S16       30.19S
OSAGE BEACH    SUNNY     64  44  48 S10       30.16F
BRANSON        SUNNY     64  41  42 CALM      30.20F

......SURROUNDING SGF CWA......

CITY           SKY/WX    TMP DP  RH WIND       PRES   REMARKS
CHANUTE        SUNNY     64  46  52 S18G30    30.08F
PARSONS        SUNNY     65  46  50 S15G22    30.11F
COFFEYVILLE    SUNNY     66  47  50 S17       30.10F
EMPORIA        SUNNY     62  45  53 S23       30.03F
GROVE OK       SUNNY     66  46  48 S13       30.17S
ROGERS AR      SUNNY     65  44  46 SW12      30.19S
SILOAM SPRINGS   N/A     66  44  45 S13       30.19
HARRISON AR    SUNNY     67  42  40 SE9       30.19F
NEAR YELLVILLE SUNNY     63  47  55 VRB3      30.21F

......KANSAS AND MISSOURI......

CITY           SKY/WX    TMP DP  RH WIND       PRES   REMARKS
KANSAS CTY INT MOSUNNY   64  46  52 S18       30.04F
DOWNTOWN KC    SUNNY     67  46  47 S18G29    30.05F
COLUMBIA       SUNNY     63  46  54 S14       30.15F
SEDALIA        SUNNY     65  48  54 S15       30.12F
ST JOSEPH      SUNNY     65  47  52 S14G24    30.02F
ST LOUIS       MOSUNNY   65  44  46 SW13G20   30.20F
SPIRIT OF STL  MOSUNNY   70  45  40 MISG      30.18F
KIRKSVILLE     SUNNY     62  47  57 S14       30.09F
WICHITA        MOSUNNY   62  47  57 S18G25    30.03F
TOPEKA         SUNNY     65  46  50 S17       30.02F
OLATHE         SUNNY     62  46  55 S16G25    30.06F

......TENNESSEE......

CITY           SKY/WX    TMP DP  RH WIND       PRES   REMARKS
MEMPHIS        SUNNY     66  49  54 S9        30.28S
NASHVILLE      MOSUNNY   66  43  43 S14       30.34F

......ARKANSAS.......

CITY           SKY/WX    TMP DP  RH WIND       PRES   REMARKS
FAYETTEVILLE   SUNNY     66  44  45 S13       30.19S
FT SMITH       SUNNY     63  49  60 NE5       30.20S
LITTLE ROCK    SUNNY     68  52  56 S9        30.25S

......OKLAHOMA.......

CITY           SKY/WX    TMP DP  RH WIND       PRES   REMARKS
TULSA          SUNNY     66  46  48 S17       30.12F
PONCA CITY     SUNNY     66  46  48 S9        30.07S
MCALESTER      MOSUNNY   68  46  45 S12G20    30.18S
OKLAHOMA CITY  SUNNY     66  46  48 S13       30.10S

......IOWA............

CITY           SKY/WX    TMP DP  RH WIND       PRES   REMARKS
DES MOINES     MOSUNNY   65  46  50 SW17      29.97S
QUAD CITIES    SUNNY     64  45  49 S14G21    30.08F

......ILLINOIS........

CITY           SKY/WX    TMP DP  RH WIND       PRES   REMARKS
QUINCY         SUNNY     62  44  51 S12       30.13F
CHICAGO        SUNNY     62  42  47 SW15      30.13F




USA.gov is the U.S. government's official web portal to all federal, state and local government web resources and services.